Weather History for EHRD - June, 2013

Change the Weather History Date:

Sunday, June 23, 2013

  Actual Average Record
Temperature  
Mean Temperature 60 °F -  
Max Temperature 65 °F 68 °F 87 °F (2005)
Min Temperature 54 °F 53 °F 46 °F (1999)
Degree Days  
Heating Degree Days 6    
Growing Degree Days 10 (Base 50)    
Moisture  
Dew Point 53 °F    
Average Humidity 83    
Maximum Humidity 94    
Minimum Humidity 68    
Precipitation  
Precipitation 0.20 in - - ()
Sea Level Pressure  
Sea Level Pressure 29.78 in    
Wind  
Wind Speed 16 mph ()    
Max Wind Speed 23 mph    
Max Gust Speed 36 mph    
Visibility 6.5 miles    
Events Rain    
Averages and records for this station are not official NWS values.
T = Trace of Precipitation, MM = Missing Value Source: Averaged Metar Reports

Daily Weather History Graph

Daily Weather History Graph

Search for Another Location

Airport or City:

Trip Planner

Search our weather history database for the weather conditions in past years. The results will help you decide how hot, cold, wet, or windy it might be!

Date:

Astronomy

Jun. 23, 2013 Rise Set
Actual Time 5:22 AM CEST 10:06 PM CEST
Civil Twilight 4:34 AM CEST 10:54 PM CEST
Nautical Twilight 3:15 AM CEST 12:12 AM CEST
Astronomical Twilight Sun does not set 1:12 AM CEST
Moon 9:52 PM CEST (6/23) 5:31 AM CEST (6/23)
Length of Visible Light 18h 20m
Length of Day
16h 43m
Full, 100% of the Moon is Illuminated
Jun 23
Full
Jun 23
Full
Jun 30
Last Quarter
Jul 8
New
Jul 16
First Quarter

Hourly Weather History & Observations

Time (CEST) Temp. Dew Point Humidity Pressure Visibility Wind Dir Wind Speed Gust Speed Precip Events Conditions
12:25 AM 57.2 °F 51.8 °F 82% 29.74 in 6.2 mi SW 18.4 mph - N/A   Unknown
12:55 AM 57.2 °F 50.0 °F 77% 29.74 in 6.2 mi SW 16.1 mph 27.6 mph N/A   Scattered Clouds
1:25 AM 57.2 °F 50.0 °F 77% 29.74 in 6.2 mi SW 16.1 mph - N/A   Mostly Cloudy
1:55 AM 57.2 °F 50.0 °F 77% 29.74 in 6.2 mi SW 20.7 mph 35.7 mph N/A   Partly Cloudy
2:00 AM 57 °F 50 °F 72% 29.75 in 15 mi SSW 15.7 mph - -   Partly Cloudy
2:25 AM 57.2 °F 50.0 °F 77% 29.74 in 6.2 mi SW 19.6 mph - N/A   Scattered Clouds
2:55 AM 57.2 °F 50.0 °F 77% 29.74 in 6.2 mi SW 18.4 mph - N/A   Mostly Cloudy
3:25 AM 57.2 °F 51.8 °F 82% 29.74 in 6.2 mi SSW 16.1 mph - N/A   Overcast
3:55 AM 55.4 °F 51.8 °F 88% 29.71 in 6.2 mi SSW 16.1 mph - N/A Rain Light Rain
4:25 AM 55.4 °F 51.8 °F 88% 29.71 in 6.2 mi SSW 17.3 mph - N/A Rain Heavy Drizzle
4:55 AM 55.4 °F 53.6 °F 94% 29.71 in 4.3 mi SSW 16.1 mph 27.6 mph N/A Rain Rain Showers
5:00 AM 55 °F 53 °F 92% 29.73 in 4 mi SSW 17.9 mph - - Rain Rain
5:25 AM 55.4 °F 53.6 °F 94% 29.71 in 3.7 mi SSW 17.3 mph - N/A Rain Light Rain
5:55 AM 55.4 °F 53.6 °F 94% 29.71 in 6.2 mi SSW 18.4 mph - N/A Rain Drizzle
6:25 AM 55.4 °F 53.6 °F 94% 29.71 in 4.3 mi SSW 15.0 mph - N/A Rain Rain Showers
6:55 AM 55.4 °F 53.6 °F 94% 29.71 in 6.2 mi SSW 16.1 mph - N/A Rain Light Rain
7:25 AM 55.4 °F 53.6 °F 94% 29.71 in 6.2 mi SSW 16.1 mph - N/A Rain Light Rain
7:55 AM 55.4 °F 53.6 °F 94% 29.71 in - SSW 17.3 mph - N/A Rain Rain
8:00 AM 55 °F 54 °F 94% 29.73 in 3 mi SSW 15.7 mph - - Rain Rain
8:25 AM 55.4 °F 53.6 °F 94% 29.71 in 5.0 mi SSW 18.4 mph - N/A Rain Light Rain
8:55 AM 57.2 °F 53.6 °F 88% 29.71 in 6.2 mi SW 17.3 mph - N/A   Mostly Cloudy
9:25 AM 57.2 °F 53.6 °F 88% 29.74 in 6.2 mi SW 17.3 mph - N/A Rain Light Rain
9:55 AM 57.2 °F 53.6 °F 88% 29.74 in 6.2 mi WSW 18.4 mph - N/A   Mostly Cloudy
10:25 AM 57.2 °F 55.4 °F 94% 29.74 in 6.2 mi SW 16.1 mph - N/A   Overcast
10:55 AM 57.2 °F 53.6 °F 88% 29.74 in 5.6 mi SW 18.4 mph 29.9 mph N/A Rain Heavy Rain
11:00 AM 59 °F 56 °F 88% 29.76 in 6 mi WSW 15.7 mph - - Rain Rain
11:25 AM 57.2 °F 55.4 °F 94% 29.74 in 6.2 mi SW 12.7 mph - N/A Rain Rain
11:55 AM 57.2 °F 55.4 °F 94% 29.77 in 5.0 mi SW 20.7 mph - N/A Rain Rain
12:25 PM 59.0 °F 55.4 °F 88% 29.77 in 6.2 mi WSW 18.4 mph - N/A   Heavy Drizzle
12:55 PM 60.8 °F 55.4 °F 82% 29.77 in 6.2 mi WSW 20.7 mph - N/A   Mostly Cloudy
1:25 PM 64.4 °F 55.4 °F 73% 29.77 in 6.2 mi WSW 18.4 mph - N/A   Mostly Cloudy
1:55 PM 60.8 °F 53.6 °F 77% 29.77 in 6.2 mi WSW 19.6 mph - N/A   Partly Cloudy
2:00 PM 61 °F 53 °F 68% 29.80 in 14 mi WSW 20.1 mph - -   Unknown Precipitation
2:25 PM 60.8 °F 53.6 °F 77% 29.80 in 6.2 mi WSW 18.4 mph - N/A   Scattered Clouds
2:55 PM 64.4 °F 55.4 °F 73% 29.80 in 6.2 mi WSW 19.6 mph - N/A Rain Light Rain
3:25 PM 64.4 °F 53.6 °F 68% 29.80 in 6.2 mi WSW 21.9 mph - N/A   Overcast
3:55 PM 64.4 °F 53.6 °F 68% 29.80 in 6.2 mi WSW 20.7 mph - N/A   Mostly Cloudy
4:25 PM 64.4 °F 55.4 °F 73% 29.80 in 6.2 mi WSW 20.7 mph - N/A   Scattered Clouds
4:55 PM 62.6 °F 53.6 °F 72% 29.80 in 6.2 mi WSW 21.9 mph 34.5 mph N/A   Mostly Cloudy
5:00 PM 61 °F 54 °F 70% 29.83 in 13 mi WSW 22.4 mph - -   Partly Cloudy
5:25 PM 62.6 °F 53.6 °F 72% 29.83 in 6.2 mi WSW 19.6 mph - N/A   Partly Cloudy
5:55 PM 60.8 °F 53.6 °F 77% 29.83 in 6.2 mi WSW 16.1 mph - N/A   Unknown
6:25 PM 62.6 °F 53.6 °F 72% 29.83 in 6.2 mi WSW 18.4 mph - N/A   Unknown
6:55 PM 60.8 °F 51.8 °F 72% 29.83 in 6.2 mi WSW 23.0 mph - N/A   Partly Cloudy
7:25 PM 60.8 °F 53.6 °F 77% 29.83 in 6.2 mi SW 18.4 mph 29.9 mph N/A   Partly Cloudy
7:55 PM 60.8 °F 53.6 °F 77% 29.83 in 6.2 mi SW 16.1 mph - N/A   Partly Cloudy
8:00 PM 60 °F 54 °F 75% 29.86 in 11 mi SW 17.9 mph - -   Partly Cloudy
8:25 PM 60.8 °F 53.6 °F 77% 29.86 in 6.2 mi WSW 16.1 mph - N/A   Mostly Cloudy
8:55 PM 59.0 °F 53.6 °F 82% 29.86 in 6.2 mi WSW 17.3 mph - N/A   Scattered Clouds
9:25 PM 59.0 °F 55.4 °F 88% 29.86 in 6.2 mi SW 13.8 mph - N/A Rain Light Rain
9:55 PM 57.2 °F 53.6 °F 88% 29.86 in 6.2 mi WSW 16.1 mph - N/A   Partly Cloudy
10:25 PM 57.2 °F 53.6 °F 88% 29.86 in 6.2 mi WSW 15.0 mph - N/A   Mostly Cloudy
10:55 PM 57.2 °F 53.6 °F 88% 29.89 in 6.2 mi WSW 15.0 mph - N/A   Partly Cloudy
11:00 PM 58 °F 53 °F 79% 29.90 in 9 mi WSW 13.4 mph - -   Partly Cloudy
11:25 PM 57.2 °F 53.6 °F 88% 29.89 in 5.6 mi WSW 13.8 mph - N/A Rain Light Rain Showers
11:55 PM 57.2 °F 53.6 °F 88% 29.89 in 6.2 mi WSW 17.3 mph - N/A Rain Heavy Drizzle